Location: Newark
(54.6833°N, 25.2833°E)
Time: 02:31:48
(UTC+00:00)

Altair - Pass Details

Date: 12 November 2019
Orbit: 1502 x 1682 km, 47.2° (Epoch: 07 December)

Event Time Altitude Azimuth Distance (km) Brightness Sun altitude
Rises 09:04:09 0° 282° (WNW) 4,684 9.8 16.6°
Reaches altitude 10° 09:07:34 10° 273° (W) 3,720 9.4 16.7°
Maximum altitude 09:15:27 32° 215° (SW) 2,469 9.4 16.9°
Drops below altitude 10° 09:23:35 10° 158° (SSE) 3,829 11.6 17.2°
Sets 09:27:10 0° 149° (SSE) 4,839 11.4 17.3°
